Regional Weather Roundup
Issued by NWS

Home | Current Version | Previous Version | Graphics & Text | Print | Product List | Glossary On
Versions: 1 2 3 4 5 6 7 8 9 10 11 12 13 14 15 16 17 18 19 20 21 22 23 24 25 26 27 28 29 30 31 32 33 34 35 36 37 38 39 40 41 42 43 44 45 46 47 48 49 50
665
ASUS43 KMKX 240911
RWRWI

WISCONSIN REGIONAL WEATHER ROUNDUP
NATIONAL WEATHER SERVICE MILWAUKEE/SULLIVAN WI
400 AM CDT SUN SEP 24 2017

NOTE: "FAIR" INDICATES FEW OR NO CLOUDS BELOW 12,000 FEET WITH NO
SIGNIFICANT WEATHER AND/OR OBSTRUCTIONS TO VISIBILITY.

WIZ001-002-006>008-014>016-023>028-241000-
NORTHWEST WISCONSIN

CITY           SKY/WX    TMP DP  RH WIND       PRES   REMARKS
SUPERIOR ARPT  MOCLDY    65  64  96 CALM      29.96S
ASHLAND        FOG       62  61  96 CALM      29.97S VSB 1/4
HAYWARD        PTCLDY    70  63  78 S6        29.98F
SIREN          CLEAR     64  64  97 CALM      29.95F
CUMBERLAND     PTCLDY    68  63  83 SE7       29.98F
RICE LAKE      PTCLDY    68  64  88 SE3       30.00F
CHETEK         PTCLDY    69  65  89 SE3       29.99F
LADYSMITH      PTCLDY    71  64  77 SE5       30.03S
EAU CLAIRE     PTCLDY    69  63  81 S3        29.99S
MENOMONIE      PTCLDY    68  65  89 E7        29.98F
NEW RICHMOND   CLEAR     71  61  71 S6        29.96F
OSCEOLA        CLEAR     71  64  78 S6        29.97F
$$

WIZ003>005-009-010-017-018-241000-
NORTH CENTRAL WISCONSIN

CITY           SKY/WX    TMP DP  RH WIND       PRES   REMARKS
MANITOWISH WTR NOT AVBL
ARBOR VITAE    PTCLDY    72  65  78 S6        30.06S
WOODRUFF       PTCLDY    72  65  78 S6        30.06S
RHINELANDER    PTCLDY    66  63  90 CALM      30.08S
EAGLE RIVER    PTCLDY    67  61  81 S3        30.07S
LAND O LAKES   PTCLDY    63  62  96 CALM      30.09S
PHILLIPS       CLEAR     70  64  83 S6        30.04R
TOMAHAWK       CLEAR     63  61  95 CALM      30.07S
MEDFORD        CLEAR     65  61  88 S6        30.06S
MERRILL        CLEAR     59  59 100 CALM      30.07S FOG
$$

WIZ029-030-035-036-043>047-241000-
CENTRAL WISCONSIN

CITY           SKY/WX    TMP DP  RH WIND       PRES   REMARKS
WAUSAU         CLEAR     66  64  93 SE3       30.05S
MOSINEE        CLEAR     66  63  88 SE5       30.07S
MARSHFIELD     CLEAR     67  61  81 S5        30.05S
STEVENS POINT  CLEAR     63  63 100 CALM      30.06F
WAUPACA        CLEAR     67  66  97 CALM      30.06S FOG
WAUTOMA        CLEAR     63  62  97 CALM      30.07R
WISC RAPIDS    CLEAR     68  63  84 S3        30.06S
CAMP DOUGLAS   CLEAR     64  64  99 S7        30.04S
$$

WIZ011>013-019>022-031-037>040-048>050-241000-
NORTHEAST WISCONSIN

CITY           SKY/WX    TMP DP  RH WIND       PRES   REMARKS
ANTIGO         CLEAR     66  64  93 S5        30.09S
SHAWANO        CLEAR     70  66  86 CALM      30.06S
OCONTO         CLEAR     63  62  97 CALM      30.06S
STURGEON BAY   CLEAR     73  65  75 S8        30.07F
GREEN BAY      CLEAR     71  66  84 S5        30.06S
MANITOWOC      CLEAR     70  65  84 S6        30.08S
APPLETON       CLEAR     68  61  77 SE5       30.06S
CLINTONVILLE   CLEAR     64  63  94 CALM      30.06S FOG
OSHKOSH        CLEAR     67  64  90 S6        30.06S
$$

WIZ032>034-041-042-053>061-241000-
SOUTHWEST WISCONSIN

CITY           SKY/WX    TMP DP  RH WIND       PRES   REMARKS
LA CROSSE      CLEAR     72  67  84 SE5       30.01R
SPARTA         CLEAR     61  60  96 CALM      30.04S
VIROQUA        CLEAR     69  65  87 SE7       30.05S
BOSCOBEL       CLEAR     65  63  93 CALM      30.03S FOG
PRAIRIE DU CHI CLEAR     67  62  85 CALM      30.02F
PLATTEVILLE    CLEAR     69  65  86 E6        30.05S
$$

WIZ056-057-062-063-064-067-068-241000-
SOUTH CENTRAL WISCONSIN

CITY           SKY/WX    TMP DP  RH WIND       PRES   REMARKS
REEDSBURG      CLEAR     63  63 100 CALM      30.05S
BARABOO/DELLS  CLEAR     69  62  77 S7        30.06S
LONE ROCK      CLEAR     63  63 100 CALM      30.04S FOG
MINERAL POINT  CLEAR     72  64  78 SE5       30.06F
MADISON        CLEAR     73  66  78 S3        30.05F
MIDDLETON      CLEAR     67  64  89 CALM      30.07S
WATERTOWN      CLEAR     66  66 100 CALM      30.06F
MONROE         CLEAR     70  63  78 SE6       30.06F
JANESVILLE     CLEAR     68  68 100 CALM      30.06S
$$

WIZ051-052-058>065-066-070>072-241000-
SOUTHEAST WISCONSIN

CITY           SKY/WX    TMP DP  RH WIND       PRES   REMARKS
MILWAUKEE      CLEAR     71  67  87 SE3       30.07S
WAUKESHA       CLEAR     64  61  88 CALM      30.10S
MILWAUKEE/TIMM CLEAR     66  61  82 CALM      30.08S
RACINE         CLEAR     70  69  97 CALM      30.09F
BURLINGTON     CLEAR     60  60 100 CALM      30.08S FOG
KENOSHA        CLEAR     68  65  90 SE3       30.08S
FOND DU LAC    CLEAR     69  63  81 S6        30.07S
SHEBOYGAN      CLEAR     63  63 100 CALM      30.08S FOG
WEST BEND        N/A     63  63 100 CALM      30.08S
JUNEAU         CLEAR     67  64  88 CALM      30.09S
$$

LSZ147-162-241000-
LAKE SUPERIOR

STATION/POSITION TIME  TEMP    WIND        PRES    WAVE
                       AIR SEA DIR/SP/G            HT/PER
                 (UTC) (F)     (DEG/KT/KT) (MB)    (FT/S)
W MID LAKE BUOY  0850   59 55   60/  4/  6 1014.6S   0
DEVILS ISLAND    0900   63      50/  9/  9 1014.6S
SAXON HARBOR     0830   65      CALM  /  1 1014.2S
$$

LMZ867-665-643>646-241000-
LAKE MICHIGAN

STATION/POSITION TIME  TEMP    WIND        PRES    WAVE
                       AIR SEA DIR/SP/G            HT/PER
                 (UTC) (F)     (DEG/KT/KT) (MB)    (FT/S)
S GREEN BAY BUOY 0900   72 69  180/  8/ 10 1017.6
N MID LAKE BUOY  0850   70 67  190/ 10/ 12 1018.5F   1/ 3
NORTHPORT PIER   0840   72     160/  5/  9 1017.6S
KEWAUNEE LAKESHO 0848   64     170/  4/  4 1017.5S
SHEBOYGAN LAKESH 0900   71     200/  4/  4 1017.9F
PORT WASHINGTON  0840   69      CALM  /  1 1019.3R
ATWATER BUOY     0809   67 65  170/  2/  4 1018.4F
MILWAUKEE LAKESH 0850   69      CALM  /  1   N/A
S MID LAKE BUOY  0850   73 70  120/  8/  8 1018.6F   0
KENOSHA   LAKESH 0900   71     140/  2/  2 1018.3
$$

TC  - TEMPERATURE IN CELSIUS
VSB - VISIBILITY IN STATUTE MILES
WCI - WIND CHILL INDEX
HX  - HEAT INDEX





USA.gov is the U.S. government's official web portal to all federal, state and local government web resources and services.